sat.trackr.live / text

‹ back to catalog

STARLINK-35177

NORAD 65673 · 2025-211X

PAYLOAD ACTIVE UNKNOWN

§ Identity

Operator
Country
US
Launch date
2025-09-19
Launch site
AFWTR
Launch vehicle
Mass (kg)
RCS (m²)

Purposes: comms

External: N2YO · Heavens-Above · Gunter

§ Orbital elements

Epoch: 2026-05-25T02:11:21.465024Z

Period
95.64 min
Inclination
97.4461°
Eccentricity
0.0001779
Mean motion
15.05659631 rev/d
Perigee alt
548.2 km
Apogee alt
550.7 km
Semi-major
6,927.6 km
B*
2.9914e-4
RAAN
189.0950°
Arg perigee
115.0494°
Mean anomaly
245.0918°
Rev number
3,854

§ Raw data

STARLINK-351771 65673U 25211X   26145.09122066  .00004261  00000+0  29914-3 0  99922 65673  97.4461 189.0950 0001779 115.0494 245.0918 15.05659631 38540

JSON: /api/v1/satellites/65673 · /tle

For live sub-satellite position, see the globe view (requires WebGL).

§ Visibility from observer

Set your observer location to see the next 7 days of passes ≥ 10°. The values pass through the URL so the page stays shareable.

No JS? Fill the form by hand. The geolocation button needs JavaScript.